Regional Weather Roundup
Issued by NWS

Home | Current Version | Previous Version | Text Only | Print | Product List | Glossary Off
Versions: 1 2 3 4 5 6 7 8 9 10 11 12 13 14 15 16 17 18 19 20 21 22 23 24 25 26 27 28 29 30 31 32 33 34 35 36 37 38 39 40 41 42 43 44 45 46 47 48 49 50

000
ASUS43 KBIS 080302
RWRND

NORTH DAKOTA REGIONAL WEATHER ROUNDUP
NATIONAL WEATHER SERVICE BISMARCK ND
1000 PM CDT TUE JUL 07 2015

NOTE: "FAIR" INDICATES FEW OR NO CLOUDS BELOW 12,000 FEET WITH NO
SIGNIFICANT WEATHER AND/OR OBSTRUCTIONS TO VISIBILITY.


NDZ001>003-009>011-017-080400-
NORTHWEST NORTH DAKOTA

CITY           SKY/WX    TMP DP  RH WIND       PRES   REMARKS
WILLISTON      PTCLDY    68  53  58 CALM      29.94R
MINOT          LGT RAIN  59  57  93 E9        29.95F
MINOT AFB      MOCLDY    60  60 100 SE9       29.95S
$$

NDZ018>021-031>035-040>046-080400-
SOUTHWEST NORTH DAKOTA

CITY           SKY/WX    TMP DP  RH WIND       PRES   REMARKS
BISMARCK       CLOUDY    68  57  68 S13       29.98S
DICKINSON      CLOUDY    62  58  86 NE12      29.97R
GARRISON         N/A     68  57  68 S15G29    29.95S
HETTINGER ARPT MOCLDY    62  59  90 SE13      29.97F
$$

NDZ004>008-012>016-024-026-027-054-080400-
NORTHEAST NORTH DAKOTA

CITY           SKY/WX    TMP DP  RH WIND       PRES   REMARKS
GRAND FORKS    PTCLDY    61  48  62 S7        30.00S
GRND FRKS AFB  PTCLDY    59  47  65 S7        30.00S
DEVILS LAKE    PTCLDY    66  52  59 S12       29.97R
$$

NDZ022-023-025-028>030-036>039-047>053-080400-
SOUTHEAST NORTH DAKOTA

CITY           SKY/WX    TMP DP  RH WIND       PRES   REMARKS
FARGO          CLEAR     65  46  50 S7        30.05S
JAMESTOWN      MOCLDY    63  49  60 S9        30.02S
$$



USA.gov is the U.S. government's official web portal to all federal, state and local government web resources and services.